This demonstration page uses our WeatherBlox Daily Observations layout. Learn more.

Left ArrowRight Arrow

Hourly Observations for January 10, 2016

Temp ( °F °C ) Dew Point ( °F °C ) Humidity (%) Winds ( mph kmh ) Pressure ( in mb ) Visibility ( mi km ) Precip ( " mm )
12:53 am 00:53 Cloudy 50 10 49 9.4 96 96 Calm 29.67 1005 9 14 0.00 0.03
1:27 am 01:27 Cloudy with Light Rain 51 10.6 49 9.4 92 92 W 3 6 29.71 1006 10 16 0.01 0.25
1:53 am 01:53 Cloudy with Light Rain 51 10.6 48 8.9 89 89 SSW 5 7 29.70 1006 10 16 0.02 0.51
2:17 am 02:17 Cloudy 51 10.6 48 8.9 89 89 WSW 5 7 29.71 1006 10 16 0.00 0.03
2:53 am 02:53 Mostly Cloudy 51 10.6 47 8.3 86 86 WSW 8 13 29.71 1006 10 16 0.00 0.03
3:53 am 03:53 Mostly Clear 48 8.9 42 5.6 80 80 W 9 15 29.72 1006 10 16 0.00 0.00
4:11 am 04:11 Mostly Cloudy 48 8.9 42 5.6 80 80 W 8 13 29.74 1007 10 16 0.00 0.00
4:53 am 04:53 Cloudy 47 8.3 41 5 80 80 WSW 7 11 29.74 1007 10 16 0.00 0.00
5:53 am 05:53 Cloudy 47 8.3 39 3.9 74 74 W 12 19 29.76 1008 10 16 0.00 0.00
6:53 am 06:53 Cloudy 45 7.2 37 2.8 74 74 W 14 22 29.80 1009 10 16 0.00 0.00
7:53 am 07:53 Cloudy 43 6.1 37 2.8 80 80 WNW 12 19 29.85 1011 10 16 0.00 0.00
8:53 am 08:53 Cloudy 39 3.9 31 -0.6 73 73 W 14 22 29.91 1013 10 16 0.00 0.00
9:53 am 09:53 Cloudy 39 3.9 31 -0.6 73 73 WNW 12 19 29.95 1014 10 16 0.00 0.00
10:53 am 10:53 Cloudy 39 3.9 31 -0.6 73 73 W 14 22 29.98 1015 10 16 0.00 0.00
11:53 am 11:53 Cloudy 39 3.9 31 -0.6 73 73 WNW 9 15 29.99 1016 10 16 0.00 0.00
12:53 pm 12:53 Cloudy 39 3.9 31 -0.6 73 73 W 9 15 29.98 1015 10 16 0.00 0.00
1:53 pm 13:53 Cloudy 39 3.9 30 -1.1 70 70 WNW 15 24 29.99 1016 10 16 0.00 0.00
2:53 pm 14:53 Cloudy 39 3.9 29 -1.7 67 67 WNW 13 20 30.00 1016 10 16 0.00 0.00
3:53 pm 15:53 Cloudy 39 3.9 28 -2.2 65 65 WNW 15 24 30.02 1017 10 16 0.00 0.00
4:53 pm 16:53 Cloudy 38 3.3 28 -2.2 68 68 W 14 22 30.06 1018 10 16 0.00 0.00
5:53 pm 17:53 Cloudy 38 3.3 28 -2.2 68 68 WNW 15 24 30.07 1018 10 16 0.00 0.00
6:53 pm 18:53 Cloudy 37 2.8 26 -3.3 65 65 WNW 7 11 30.10 1019 10 16 0.00 0.00
7:53 pm 19:53 Cloudy 36 2.2 26 -3.3 67 67 WNW 10 17 30.12 1020 10 16 0.00 0.00
8:53 pm 20:53 Mostly Clear 34 1.1 22 -5.6 61 61 WNW 10 17 30.14 1021 10 16 0.00 0.00
9:53 pm 21:53 Clear 32 0 22 -5.6 66 66 WNW 7 11 30.14 1021 10 16 0.00 0.00
10:53 pm 22:53 Clear 31 -0.6 22 -5.6 69 69 WNW 5 7 30.16 1021 10 16 0.00 0.00
11:53 pm 23:53 Clear 30 -1.1 21 -6.1 69 69 WNW 6 9 30.17 1022 10 16 0.00 0.00

Powered by AerisWeather